Weather History for Cherokee, IA

Change the Weather History Date:

Friday, December 27, 2013

  Actual Average Record
Temperature  
Mean Temperature 35 °F -  
Max Temperature 55 °F 28 °F 55 °F (2013)
Min Temperature 15 °F 8 °F -15 °F (1964)
Degree Days  
Heating Degree Days 30    
Moisture  
Dew Point 23 °F    
Average Humidity 70    
Maximum Humidity 91    
Minimum Humidity 28    
Precipitation  
Precipitation 0.00 in - - ()
Sea Level Pressure  
Sea Level Pressure 30.10 in    
Wind  
Wind Speed 4 mph (SW)    
Max Wind Speed 20 mph    
Max Gust Speed 24 mph    
Visibility 10 miles    
Events      
Averages and records for this station are not official NWS values.
T = Trace of Precipitation, MM = Missing Value Source: NWS Daily Summary

Daily Weather History Graph

Daily Weather History Graph

Search for Another Location

Airport:

Trip Planner

Search our weather history database for the weather conditions in past years. The results will help you decide how hot, cold, wet, or windy it might be!

Date:

Astronomy

Dec. 27, 2013 Rise Set
Actual Time 7:51 AM CST 4:55 PM CST
Civil Twilight 7:19 AM CST 5:27 PM CST
Nautical Twilight 6:43 AM CST 6:03 PM CST
Astronomical Twilight 6:09 AM CST 6:37 PM CST
Moon 2:19 AM CST (12/27) 1:10 PM CST (12/27)
Length of Visible Light 10h 07m
Length of Day
9h 03m
Waning Crescent, 28% of the Moon is Illuminated
Dec 27
Waning Crescent
Jan 1
New
Jan 7
First Quarter
Jan 15
Full
Jan 23
Last Quarter

Hourly Weather History & Observations

Time (CST) Temp. Windchill Dew Point Humidity Pressure Visibility Wind Dir Wind Speed Gust Speed Precip Events Conditions
12:15 AM 23.2 °F - 19.8 °F 87% 30.20 in 10.0 mi Calm Calm - N/A   Clear
12:35 AM 22.6 °F - 19.2 °F 87% 30.20 in 10.0 mi Calm Calm - N/A   Clear
12:55 AM 22.1 °F - 18.9 °F 87% 30.19 in 10.0 mi Calm Calm - N/A   Clear
1:15 AM 21.4 °F - 18.1 °F 87% 30.19 in 10.0 mi Calm Calm - N/A   Clear
1:35 AM 19.4 °F - 16.5 °F 89% 30.20 in 10.0 mi Calm Calm - N/A   Clear
1:55 AM 19.6 °F - 16.9 °F 89% 30.20 in 10.0 mi Calm Calm - N/A   Clear
2:15 AM 19.2 °F - 16.9 °F 91% 30.20 in 10.0 mi Calm Calm - N/A   Clear
2:35 AM 19.2 °F - 16.5 °F 89% 30.20 in 10.0 mi Calm Calm - N/A   Clear
2:55 AM 17.6 °F - 14.9 °F 89% 30.20 in 10.0 mi Calm Calm - N/A   Clear
3:15 AM 18.0 °F - 15.6 °F 91% 30.19 in 10.0 mi Calm Calm - N/A   Clear
3:35 AM 15.6 °F 10.0 °F 12.9 °F 89% 30.19 in 10.0 mi South 3.5 mph - N/A   Clear
3:55 AM 17.1 °F - 14.7 °F 91% 30.19 in 10.0 mi Calm Calm - N/A   Clear
4:15 AM 17.4 °F - 14.9 °F 90% 30.19 in 10.0 mi Calm Calm - N/A   Clear
4:35 AM 16.2 °F - 13.6 °F 90% 30.19 in 10.0 mi Calm Calm - N/A   Clear
4:55 AM 17.2 °F 11.9 °F 14.5 °F 89% 30.17 in 10.0 mi SSW 3.5 mph - N/A   Clear
5:15 AM 17.1 °F 10.0 °F 14.2 °F 88% 30.16 in 10.0 mi SW 4.6 mph - N/A   Clear
5:35 AM 16.3 °F 9.2 °F 13.8 °F 90% 30.15 in 10.0 mi South 4.6 mph - N/A   Clear
5:55 AM 15.8 °F 10.2 °F 12.9 °F 88% 30.16 in 10.0 mi SSW 3.5 mph - N/A   Clear
6:15 AM 17.2 °F - 14.5 °F 89% 30.16 in 10.0 mi Calm Calm - N/A   Clear
6:35 AM 17.8 °F - 15.1 °F 89% 30.16 in 10.0 mi Calm Calm - N/A   Clear
6:55 AM 20.1 °F - 18.0 °F 91% 30.15 in 10.0 mi Calm Calm - N/A   Clear
7:15 AM 19.0 °F 11.1 °F 16.3 °F 89% 30.16 in 10.0 mi South 5.8 mph - N/A   Clear
7:35 AM 24.6 °F 16.7 °F 22.3 °F 91% 30.15 in 10.0 mi South 6.9 mph - N/A   Clear
7:55 AM 24.8 °F 16.9 °F 22.3 °F 90% 30.14 in 10.0 mi South 6.9 mph - N/A   Clear
8:15 AM 25.0 °F 18.1 °F 22.6 °F 91% 30.12 in 10.0 mi South 5.8 mph - N/A   Clear
8:35 AM 27.7 °F 18.8 °F 25.0 °F 90% 30.11 in 10.0 mi South 9.2 mph - N/A   Clear
8:55 AM 29.5 °F 21.1 °F 26.4 °F 88% 30.11 in 10.0 mi SSW 9.2 mph - N/A   Clear
9:15 AM 32.0 °F 22.5 °F 28.4 °F 87% 30.11 in 10.0 mi SSW 12.7 mph - N/A   Clear
9:35 AM 33.3 °F 23.2 °F 28.9 °F 84% 30.10 in 10.0 mi SSW 15.0 mph - N/A   Clear
9:55 AM 36.0 °F 27.1 °F 29.5 °F 77% 30.09 in 10.0 mi SSW 13.8 mph - N/A   Clear
10:15 AM 39.9 °F 31.1 °F 29.7 °F 67% 30.08 in 10.0 mi SSW 17.3 mph 21.9 mph N/A   Clear
10:35 AM 43.0 °F 35.7 °F 29.1 °F 58% 30.08 in 10.0 mi SW 15.0 mph 20.7 mph N/A   Clear
10:55 AM 45.3 °F 38.7 °F 27.9 °F 51% 30.08 in 10.0 mi SW 15.0 mph - N/A   Clear
11:15 AM 47.1 °F - 26.6 °F 45% 30.07 in 10.0 mi SW 16.1 mph - N/A   Clear
11:35 AM 48.9 °F - 25.0 °F 39% 30.06 in 10.0 mi SW 15.0 mph 23.0 mph N/A   Clear
11:55 AM 50.0 °F - 23.7 °F 36% 30.05 in 10.0 mi SW 19.6 mph 24.2 mph N/A   Clear
12:15 PM 51.1 °F - 23.5 °F 34% 30.04 in 10.0 mi SW 19.6 mph - N/A   Clear
12:35 PM 52.0 °F - 23.4 °F 33% 30.03 in 10.0 mi WSW 16.1 mph 20.7 mph N/A   Clear
12:55 PM 52.9 °F - 23.9 °F 32% 30.04 in 10.0 mi WSW 9.2 mph 17.3 mph N/A   Clear
1:15 PM 53.8 °F - 23.9 °F 31% 30.03 in 10.0 mi WSW 15.0 mph 21.9 mph N/A   Clear
1:35 PM 55.2 °F - 22.8 °F 28% 30.03 in 10.0 mi West 17.3 mph 21.9 mph N/A   Clear
1:55 PM 55.4 °F - 22.5 °F 28% 30.02 in 10.0 mi WSW 12.7 mph 20.7 mph N/A   Clear
2:15 PM 55.4 °F - 23.0 °F 29% 30.02 in 10.0 mi West 12.7 mph 17.3 mph N/A   Clear
2:35 PM 55.6 °F - 23.2 °F 29% 30.02 in 10.0 mi West 11.5 mph - N/A   Clear
2:55 PM 55.2 °F - 24.4 °F 30% 30.03 in 10.0 mi West 9.2 mph - N/A   Clear
3:15 PM 55.4 °F - 25.5 °F 32% 30.03 in 10.0 mi West 10.4 mph - N/A   Clear
3:35 PM 54.5 °F - 26.1 °F 33% 30.04 in 10.0 mi West 5.8 mph - N/A   Clear
3:55 PM 53.1 °F - 27.3 °F 37% 30.04 in 10.0 mi West 8.1 mph - N/A   Clear
4:15 PM 52.2 °F - 27.9 °F 39% 30.04 in 10.0 mi West 5.8 mph - N/A   Clear
4:35 PM 51.1 °F - 28.2 °F 41% 30.05 in 10.0 mi WNW 3.5 mph - N/A   Clear
4:55 PM 48.7 °F - 28.4 °F 45% 30.05 in 10.0 mi Calm Calm - N/A   Clear
5:15 PM 47.7 °F - 28.8 °F 48% 30.06 in 10.0 mi West 5.8 mph - N/A   Clear
5:35 PM 45.0 °F 43.5 °F 28.9 °F 53% 30.06 in 10.0 mi NW 3.5 mph - N/A   Clear
5:55 PM 45.5 °F - 28.9 °F 52% 30.06 in 10.0 mi Calm Calm - N/A   Clear
6:15 PM 43.9 °F - 29.1 °F 56% 30.06 in 10.0 mi Calm Calm - N/A   Clear
6:35 PM 44.8 °F - 29.3 °F 55% 30.06 in 10.0 mi Calm Calm - N/A   Clear
6:55 PM 37.4 °F - 28.9 °F 71% 30.07 in 10.0 mi Calm Calm - N/A   Clear
7:15 PM 36.0 °F - 29.3 °F 77% 30.06 in 10.0 mi Calm Calm - N/A   Clear
7:35 PM 34.3 °F - 27.9 °F 77% 30.06 in 10.0 mi Calm Calm - N/A   Clear
7:55 PM 33.4 °F - 27.9 °F 80% 30.06 in 10.0 mi Calm Calm - N/A   Clear
8:15 PM 32.2 °F 28.9 °F 28.0 °F 85% 30.05 in 10.0 mi South 3.5 mph - N/A   Clear
8:35 PM 32.0 °F 28.7 °F 27.3 °F 83% 30.06 in 10.0 mi SSW 3.5 mph - N/A   Clear
8:55 PM 31.6 °F - 27.3 °F 84% 30.05 in 10.0 mi Calm Calm - N/A   Clear
9:15 PM 31.6 °F 28.3 °F 27.1 °F 83% 30.05 in 10.0 mi South 3.5 mph - N/A   Clear
9:35 PM 32.0 °F - 27.7 °F 84% 30.05 in 10.0 mi Calm Calm - N/A   Clear
9:55 PM 30.4 °F - 24.8 °F 80% 30.05 in 10.0 mi Calm Calm - N/A   Clear
10:15 PM 30.9 °F - 26.6 °F 84% 30.04 in 10.0 mi Calm Calm - N/A   Clear
10:35 PM 30.7 °F 26.0 °F 26.8 °F 85% 30.04 in 10.0 mi South 4.6 mph - N/A   Clear
10:55 PM 28.2 °F - 25.2 °F 88% 30.04 in 10.0 mi Calm Calm - N/A   Clear
11:15 PM 29.1 °F - 25.7 °F 87% 30.04 in 10.0 mi Calm Calm - N/A   Clear
11:35 PM 29.8 °F - 26.2 °F 86% 30.02 in 10.0 mi Calm Calm - N/A   Clear
11:55 PM 29.7 °F - 26.4 °F 88% 30.02 in 10.0 mi Calm Calm - N/A   Clear